Theta_e
350 350 351 349 349 347 346 345 344 343 341 341 341 340 339 339 339 336 332 329 328 326 326 324 323 323 324 326 327 328 333 335 330 330 337 334 332 331 333 335 335 333 331
351 349 347 342 346 344 342 340 339 337 336 336 335 335 334 334 332 329 327 326 325 323 322 322 321 324 320 321 322 322 322 325 332 330 329 331 327 330 330 330 331 331 331
349 344 343 342 340 338 336 335 334 333 331 329 329 329 329 330 331 328 327 326 325 324 323 322 321 320 318 318 319 320 320 322 321 325 322 326 327 327 327 328 327 326 330
344 341 338 337 336 335 333 331 329 327 326 325 325 325 325 325 326 328 327 324 322 322 322 323 324 323 320 317 318 318 319 318 316 315 316 317 321 321 323 319 319 322 322
338 336 335 334 334 333 330 328 326 325 323 322 322 323 325 325 324 321 321 319 318 318 318 320 325 331 332 329 320 318 316 315 314 314 313 313 314 315 315 316 315 316 318
336 333 332 332 332 330 327 325 324 321 319 319 319 321 324 328 331 330 323 318 317 315 314 313 317 322 325 332 331 331 324 314 312 311 309 309 310 311 313 313 313 313 311
333 332 331 331 330 327 324 324 321 318 317 316 316 319 320 322 329 329 324 312 311 310 309 308 311 316 312 310 317 322 325 327 325 313 310 310 310 311 311 311 310 309 310
330 330 329 329 327 324 323 321 319 318 316 314 313 316 318 321 323 321 316 305 305 305 305 305 306 309 314 307 306 307 310 313 317 319 315 315 315 316 313 312 311 309 311
329 329 329 328 325 323 321 319 319 318 315 312 311 311 315 316 321 319 311 306 306 305 307 309 306 308 318 316 307 307 308 309 317 319 321 322 320 322 323 311 310 307 305
330 329 329 327 325 323 322 321 318 316 312 309 309 309 317 318 320 319 312 307 304 305 305 307 317 314 315 315 307 306 305 306 306 306 307 309 310 310 317 309 308 306 304
331 330 328 328 326 325 323 319 317 313 307 306 306 305 311 319 318 319 316 306 306 306 305 304 306 316 313 313 312 307 306 306 306 303 303 304 305 305 306 306 306 308 306
331 330 329 327 329 327 321 317 315 305 304 304 304 304 305 311 315 315 314 312 313 304 303 303 307 313 312 312 310 313 312 307 302 301 300 300 301 302 304 304 303 305 308
331 329 329 328 327 323 319 314 308 304 304 303 303 303 303 304 308 315 315 315 314 304 305 309 313 310 310 310 314 313 308 301 300 299 298 299 299 301 302 302 303 303 302
330 329 328 327 322 321 319 313 308 305 304 304 303 302 303 305 305 302 302 302 308 307 312 310 312 311 311 308 306 305 304 303 300 298 298 298 299 300 300 301 299 299 298
330 329 328 326 324 319 317 315 310 309 309 307 305 305 306 304 305 303 301 301 301 303 306 305 303 302 302 302 302 301 303 301 299 298 299 299 299 299 299 300 299 298 296
329 329 328 325 322 319 312 306 305 307 307 307 306 307 309 305 303 301 299 300 301 303 306 303 302 302 301 301 300 299 300 302 298 299 298 299 298 299 299 299 299 297 296
329 329 327 322 320 316 313 313 308 303 303 303 302 304 305 304 300 298 298 299 300 304 305 303 303 302 301 300 299 299 299 299 298 298 298 299 299 299 299 298 297 297 298
330 321 326 322 319 314 311 310 308 307 307 307 302 304 300 299 298 297 297 299 303 303 304 305 304 302 301 300 300 299 299 298 298 298 298 298 299 298 297 297 298 297 298
329 328 326 321 317 313 307 305 305 305 305 305 302 302 300 297 296 296 297 301 304 303 304 304 304 304 303 301 300 300 299 298 297 295 295 297 298 297 296 297 297 300 299
330 327 324 319 315 310 307 306 303 303 303 305 306 307 301 300 300 301 300 301 302 305 306 305 304 303 303 303 301 300 299 297 294 292 294 295 293 293 293 294 295 295 296
330 327 325 320 315 313 309 307 306 304 305 304 305 305 302 304 303 302 302 302 303 305 307 305 305 304 303 301 300 300 298 295 294 293 293 291 293 292 292 292 293 295 295
330 328 325 321 317 314 311 309 307 306 305 304 304 304 300 304 303 302 303 304 305 306 309 308 306 305 303 302 302 300 297 295 294 294 292 291 291 291 292 292 294 295 296
330 329 327 323 320 315 313 312 310 308 306 306 305 304 302 304 305 305 306 305 306 308 309 308 306 304 303 303 303 301 296 295 294 294 292 291 290 290 291 292 293 295 296
331 330 328 325 322 319 318 316 315 309 311 311 310 309 308 307 307 307 307 308 309 310 311 308 306 305 303 303 301 297 295 295 295 293 292 291 289 290 291 292 293 295 295
331 330 329 327 324 322 321 320 320 319 317 316 316 315 314 312 310 308 308 309 311 310 309 307 306 306 304 302 298 296 293 292 293 291 291 290 289 291 291 292 293 293 294
331 330 329 329 326 325 324 324 323 322 321 321 321 318 316 313 311 310 310 309 311 311 307 308 307 306 304 301 298 294 287 287 291 288 290 289 290 291 291 292 292 292 293
Wind_Speed
7 6 5 6 5 4 4 5 5 5 5 8 8 6 6 7 7 8 7 7 11 8 7 7 6 5 4 5 4 3 4 2 1 2 3 5 7 7 7 6 6 6 7
6 6 7 7 6 5 6 6 5 6 6 6 6 6 6 8 7 8 9 9 9 9 6 7 8 6 7 5 4 5 4 4 2 4 5 6 6 5 4 5 5 5 4
8 9 8 8 7 6 6 7 5 6 6 6 6 6 6 6 8 8 10 8 7 6 5 6 6 7 7 5 5 5 4 4 4 4 4 3 2 3 4 3 3 3 3
10 10 9 8 8 7 7 6 6 5 7 6 6 7 7 7 7 8 8 7 6 6 6 6 5 6 6 5 5 6 5 5 4 4 4 3 3 4 4 4 6 3 4
11 11 10 9 9 8 8 6 6 7 6 6 6 6 6 7 5 7 7 6 6 6 6 6 6 8 12 8 4 5 5 4 4 4 4 3 4 4 5 3 3 4 2
12 11 10 10 9 8 8 7 7 7 6 6 6 7 7 5 11 12 8 6 6 6 6 6 6 10 7 9 10 10 7 5 5 3 3 3 5 3 4 3 3 4 5
12 11 10 10 10 8 8 8 7 6 6 6 6 6 6 6 11 11 12 6 6 6 6 5 6 5 7 6 9 10 10 11 10 2 3 2 2 3 4 5 3 2 2
11 11 10 10 10 9 8 8 7 5 6 6 6 6 6 5 11 11 12 7 6 6 5 5 6 6 6 6 6 7 6 6 5 2 0 2 2 3 0 2 3 4 3
12 12 11 11 11 10 10 9 6 6 5 3 4 6 6 4 7 10 9 6 6 5 3 3 5 5 4 7 8 7 7 7 7 9 8 9 10 7 6 4 5 5 4
12 11 11 10 11 10 9 8 4 4 5 4 5 4 8 7 6 8 6 4 5 3 2 4 8 6 7 7 7 6 7 4 6 8 8 9 9 8 12 5 1 2 2
11 11 10 9 9 9 8 4 6 6 6 5 5 4 6 6 5 7 5 3 4 3 3 4 4 9 10 8 7 6 2 1 6 5 5 5 6 6 6 5 5 0 1
13 12 11 9 8 7 9 5 6 7 7 6 6 4 4 4 7 6 7 6 4 3 2 1 2 7 10 8 6 5 6 5 4 5 5 5 5 5 6 5 6 5 2
14 13 11 9 8 8 9 7 5 6 5 5 5 5 3 2 3 5 6 6 4 3 1 2 2 9 8 6 8 8 7 5 4 4 4 3 2 4 5 5 6 6 3
15 13 10 10 9 7 6 5 6 5 5 5 5 5 3 2 2 1 2 3 4 5 5 5 7 7 6 4 5 6 4 3 3 2 2 2 3 4 4 4 3 5 4
14 12 11 8 10 7 5 5 7 5 8 8 6 6 6 4 5 6 6 3 3 3 3 3 3 3 3 3 3 4 3 4 4 2 3 3 3 3 4 3 3 4 3
15 12 10 8 7 7 7 4 7 1 6 6 8 8 3 3 9 9 7 6 5 5 3 2 1 1 1 0 2 3 2 2 1 2 2 2 2 3 3 3 2 2 3
14 13 9 9 8 8 7 7 6 2 2 7 9 11 11 10 12 11 11 8 6 6 3 3 3 3 2 2 1 1 1 1 1 1 2 3 3 3 4 3 4 3 4
11 12 11 9 9 8 8 7 5 6 5 3 4 8 11 13 12 10 9 6 1 0 3 4 4 4 4 3 3 2 1 1 1 1 3 3 3 2 2 3 3 3 4
13 11 10 9 9 10 7 7 6 5 5 4 3 4 8 7 7 5 6 3 4 3 3 4 4 4 4 3 3 2 3 3 2 1 1 2 3 2 3 3 4 5 5
12 18 14 10 9 9 8 8 6 6 6 8 6 7 4 5 5 5 5 3 3 4 4 5 5 5 4 4 3 3 3 3 1 1 1 1 2 2 2 3 3 3 4
8 10 14 9 10 10 9 9 9 8 9 7 8 7 10 7 7 5 5 5 5 5 5 5 4 4 4 4 4 4 3 2 2 2 2 0 2 2 3 3 3 4 4
9 10 10 10 10 11 10 10 11 10 9 8 6 4 11 5 4 4 5 5 6 6 5 6 5 5 5 5 5 5 4 4 2 3 1 0 2 3 2 2 3 3 4
15 15 13 10 10 11 10 11 11 10 9 8 6 5 5 8 7 7 7 6 6 6 5 4 5 5 5 5 4 5 5 4 4 3 2 0 2 2 2 2 3 4 4
15 16 16 14 12 11 11 12 9 8 7 8 10 10 12 13 12 11 9 7 6 5 5 6 6 8 6 4 4 4 3 3 3 3 3 1 2 3 2 3 3 4 4
13 14 15 15 14 14 12 11 9 10 11 12 12 11 9 10 10 10 10 9 7 6 7 6 6 8 8 8 7 8 7 8 5 5 2 1 3 4 2 3 3 4 4
14 15 13 12 12 12 12 11 11 12 12 12 11 8 8 9 10 10 10 9 8 7 8 7 8 9 9 7 9 10 8 8 6 6 3 2 3 3 2 4 6 3 5
Wind_Direction
179 172 147 137 140 128 99 58 62 70 65 62 60 57 57 61 59 75 72 71 73 65 52 58 45 25 33 24 17 13 15 4 33 336 24 357 16 21 23 19 38 40 34
139 127 125 137 126 108 97 92 64 67 57 70 68 70 70 74 69 80 83 71 72 62 44 49 37 34 34 19 23 25 25 352 37 55 16 11 24 344 6 33 23 35 36
123 121 126 125 119 107 100 88 85 84 73 66 74 73 72 74 79 74 79 72 64 60 54 55 39 34 33 12 18 29 25 33 32 65 37 352 352 358 342 345 1 7 21
122 125 127 124 121 114 101 96 95 88 82 72 59 65 64 68 68 81 81 71 62 53 49 48 44 44 46 34 39 31 25 43 34 46 28 5 351 331 355 354 351 346 356
122 127 128 122 116 115 111 107 92 85 85 84 87 71 68 76 86 88 86 82 77 62 44 35 39 65 59 55 52 28 40 45 35 38 39 20 9 358 3 316 318 320 344
127 126 125 124 124 123 117 110 102 91 87 89 78 78 70 77 91 99 100 93 78 70 57 37 32 41 26 41 52 58 66 55 37 38 16 26 2 348 332 339 330 355 352
128 131 130 129 126 123 120 116 114 112 113 99 99 100 91 87 99 96 93 79 83 74 66 56 53 28 40 41 33 41 42 54 66 94 45 33 350 327 321 340 345 3 307
134 134 133 132 132 133 131 133 127 128 120 118 115 113 108 102 111 105 102 91 79 69 71 70 70 41 33 53 61 53 34 23 17 27 127 278 239 287 327 258 276 278 278
145 148 146 146 145 145 143 142 137 125 118 118 132 138 138 146 134 118 110 96 91 80 69 66 68 57 32 54 68 66 47 20 344 31 47 39 22 12 34 13 10 24 332
155 153 150 149 150 148 148 139 119 123 129 130 120 126 169 158 170 125 115 118 94 86 60 32 22 21 42 62 83 77 62 349 3 15 10 8 15 21 35 50 345 24 333
145 147 149 151 148 147 130 125 133 120 110 102 92 55 100 149 147 123 133 112 118 84 47 5 355 16 76 83 88 83 120 341 32 43 26 15 10 12 13 11 17 52 315
148 149 152 147 149 141 138 127 117 117 114 116 109 78 61 112 132 149 165 158 164 99 50 343 355 74 78 71 69 90 76 71 49 37 27 13 8 2 351 348 359 21 49
152 151 152 147 144 146 140 132 120 120 128 142 134 128 124 96 92 104 102 101 77 100 168 199 143 90 82 66 54 61 54 45 51 46 23 6 324 312 317 350 352 356 347
154 154 154 152 146 136 123 139 142 147 146 150 149 149 157 153 147 88 78 66 50 70 80 96 92 90 79 76 46 37 40 66 84 69 28 325 330 359 360 349 351 351 1
155 157 160 153 152 131 125 153 165 187 172 166 181 166 165 186 211 180 162 142 124 157 122 60 46 39 40 23 26 24 27 42 52 18 33 9 358 350 345 345 1 354 22
159 161 161 150 144 149 142 113 37 88 212 221 173 172 216 186 166 166 159 161 165 165 73 117 135 109 124 33 12 341 21 48 41 63 34 7 348 352 348 347 358 6 326
165 159 150 146 153 157 160 162 168 344 79 223 214 201 182 180 175 172 179 183 166 140 135 172 180 180 201 217 209 199 200 297 26 68 9 344 356 347 6 348 345 345 327
160 155 157 157 160 161 166 178 168 174 192 202 176 196 204 180 180 179 162 114 80 141 152 173 193 184 198 217 215 187 177 112 76 358 353 356 340 314 329 346 358 329 314
155 159 161 164 166 162 159 168 174 172 186 174 173 200 190 174 161 158 187 198 186 200 187 177 188 192 204 206 220 203 167 165 167 8 335 335 334 328 316 335 343 327 320
164 165 163 164 161 161 167 172 175 181 185 198 190 194 147 116 178 193 191 184 209 218 206 190 194 189 203 191 194 184 168 175 175 329 321 321 320 309 308 324 335 327 316
173 168 165 162 169 170 175 183 192 194 200 192 203 193 179 186 206 197 189 188 203 208 204 205 194 186 189 187 186 185 193 193 207 218 221 300 332 318 315 309 306 306 303
176 173 181 179 174 177 179 189 198 203 196 189 199 182 171 187 190 213 222 199 210 212 203 191 187 183 185 189 182 181 195 208 226 222 219 40 322 316 318 312 323 316 309
177 176 182 182 182 179 186 199 205 202 193 186 179 168 174 204 205 203 213 210 203 214 214 194 170 180 186 198 183 177 174 210 219 180 189 214 306 294 304 311 314 312 325
182 178 184 181 181 186 195 206 204 197 195 195 197 196 201 197 197 202 207 212 201 200 188 182 176 177 187 177 164 161 181 191 183 197 157 193 289 286 309 314 311 305 303
189 187 191 185 182 187 191 201 193 188 199 208 214 209 207 214 211 200 194 200 198 172 184 171 167 176 185 167 168 175 197 188 182 171 160 201 268 274 285 292 302 311 307
188 195 195 189 189 187 197 197 201 205 196 210 216 203 194 205 212 202 198 187 180 174 163 170 169 171 166 172 184 186 182 199 197 186 172 211 252 273 286 294 301 303 311